JAL48 EFHK-RJTT

Flight info

Callsign JAL48
Flight time N/A
Altitude 32000
Route N0493F320 TEVRU Y75 USUPO DCT VATAX DCT 78N000E/M084F320 81N020W 82N040W 82N060W/N0483F340 82N080W 82N100W 81N120W DCT OMEKA DCT JUJXI DCT MARCC/N0480F360 R338 NATES R220 NIKLL/N0483F370 R220 NOGAL/N0491F380 R220 NODAN/N0492F390 R220 NANAC/N0484F380 Y810 AKRIT Y807 POLIX
Aircraft B77W/H-SDE1E2E3FGHIJ2J3J4J5M1RWXY/LB1D1

Departure

Time 2026-05-04 11:12
Airport Helsinki Vantaa Airport (EFHK)

Arrival

Time N/A
Airport Tokyo Haneda International Airport (RJTT)
Time Latitude Longitude Altitude Speed Heading
2026-05-04 10:42 60.31329 24.95754 193 ft 0 kts 317°
2026-05-04 10:58 60.31317 24.95777 222 ft 4 kts 309°
2026-05-04 10:58 60.31303 24.95819 208 ft 4 kts 289°
2026-05-04 10:59 60.31298 24.95865 206 ft 4 kts 261°
2026-05-04 10:59 60.31306 24.95908 208 ft 4 kts 233°
2026-05-04 10:59 60.31312 24.95925 208 ft 0 kts 227°
2026-05-04 11:05 60.31643 24.95327 203 ft 13 kts 48°
2026-05-04 11:06 60.31705 24.95465 206 ft 14 kts 48°
2026-05-04 11:06 60.31772 24.95615 208 ft 15 kts 48°
2026-05-04 11:06 60.31846 24.95779 208 ft 16 kts 48°
2026-05-04 11:06 60.31922 24.95941 199 ft 10 kts 35°
2026-05-04 11:08 60.32384 24.95230 197 ft 13 kts 337°
2026-05-04 11:10 60.32994 24.94725 204 ft 14 kts 320°
2026-05-04 11:12 60.31275 24.90340 309 ft 228 kts 228°
2026-05-04 11:12 60.30186 24.87988 1413 ft 236 kts 226°
2026-05-04 11:12 60.29061 24.85590 2841 ft 237 kts 227°
2026-05-04 11:12 60.27983 24.83080 4259 ft 232 kts 232°
2026-05-04 11:13 60.27204 24.80190 5110 ft 244 kts 258°
2026-05-04 11:13 60.27392 24.76745 5489 ft 261 kts 294°
2026-05-04 11:13 60.28650 24.73987 5957 ft 280 kts 329°
2026-05-04 11:13 60.30517 24.72702 6488 ft 285 kts 336°
2026-05-04 11:14 60.32190 24.70688 6962 ft 279 kts 311°
2026-05-04 11:14 60.33481 24.67812 7676 ft 274 kts 302°
2026-05-04 11:14 60.34565 24.64736 8394 ft 271 kts 303°
2026-05-04 11:16 60.49891 24.67570 10810 ft 390 kts
2026-05-04 11:16 60.52577 24.68786 11348 ft 399 kts
2026-05-04 11:16 60.55316 24.70045 11953 ft 405 kts
2026-05-04 11:17 60.58080 24.71323 12664 ft 409 kts
2026-05-04 11:17 60.60833 24.72599 13366 ft 412 kts
2026-05-04 11:19 60.81159 24.82054 17586 ft 443 kts
2026-05-04 11:19 60.84188 24.83302 18149 ft 444 kts
2026-05-04 11:19 60.87221 24.84103 18668 ft 446 kts
2026-05-04 11:19 60.90318 24.84725 19188 ft 449 kts 360°
2026-05-04 11:20 60.93441 24.85322 19699 ft 453 kts
2026-05-04 11:20 60.96591 24.85962 20233 ft 457 kts
2026-05-04 11:20 60.99778 24.86662 20759 ft 462 kts
2026-05-04 11:20 61.02989 24.87404 21279 ft 466 kts
2026-05-04 11:22 61.26165 24.92973 24449 ft 491 kts
2026-05-04 11:22 61.29616 24.93811 24849 ft 494 kts
2026-05-04 11:23 61.33002 24.94634 25228 ft 498 kts
2026-05-04 11:23 61.36455 24.95476 25609 ft 501 kts
2026-05-04 11:24 61.57612 25.00481 27679 ft 514 kts 356°
2026-05-04 11:25 61.61142 25.00352 27986 ft 511 kts 349°
2026-05-04 11:25 61.64682 24.99528 28287 ft 509 kts 344°
2026-05-04 11:25 61.68129 24.97974 28562 ft 505 kts 338°
2026-05-04 11:26 61.74920 24.93988 29110 ft 508 kts 337°
2026-05-04 11:27 61.98771 24.79876 30672 ft 506 kts 337°
2026-05-04 11:28 62.05506 24.75924 30673 ft 504 kts 336°
2026-05-04 11:28 62.12273 24.71924 30680 ft 504 kts 336°
2026-05-04 11:29 62.19031 24.67907 30674 ft 504 kts 336°
2026-05-04 11:29 62.25800 24.63867 30657 ft 504 kts 336°
2026-05-04 11:33 62.73076 24.35125 30640 ft 503 kts 336°
2026-05-04 11:33 62.79765 24.30981 30641 ft 502 kts 336°
2026-05-04 11:34 62.86530 24.26768 30645 ft 502 kts 336°
2026-05-04 11:34 62.93216 24.22585 30643 ft 502 kts 336°
2026-05-04 11:35 62.99937 24.18360 30639 ft 502 kts 336°
2026-05-04 11:35 63.06650 24.14121 30638 ft 502 kts 336°
2026-05-04 11:36 63.13327 24.09885 30619 ft 501 kts 336°
2026-05-04 11:36 63.20029 24.05613 30623 ft 500 kts 336°
2026-05-04 11:37 63.26724 24.01325 30631 ft 500 kts 336°
2026-05-04 11:37 63.33415 23.97017 30639 ft 499 kts 336°
2026-05-04 11:38 63.40041 23.92729 30633 ft 499 kts 336°
2026-05-04 11:38 63.46710 23.88393 30632 ft 499 kts 336°
2026-05-04 11:39 63.53379 23.84038 30629 ft 498 kts 336°
2026-05-04 11:41 63.73999 23.70433 30616 ft 498 kts 335°
2026-05-04 11:42 63.76429 23.68816 30621 ft 498 kts 335°
2026-05-04 11:42 63.83073 23.64381 30627 ft 498 kts 335°
2026-05-04 11:43 63.88600 23.60673 30626 ft 498 kts 335°
2026-05-04 11:43 63.96343 23.55454 30628 ft 498 kts 335°
2026-05-04 11:44 64.01866 23.51714 30627 ft 498 kts 335°
2026-05-04 11:44 64.08510 23.47195 30630 ft 498 kts 335°
2026-05-04 11:45 64.15168 23.42642 30626 ft 498 kts 335°
2026-05-04 11:45 64.21826 23.38067 30632 ft 498 kts 335°
2026-05-04 11:46 64.28416 23.33515 30640 ft 498 kts 335°
2026-05-04 11:46 64.35065 23.28899 30642 ft 498 kts 335°
2026-05-04 11:47 64.41703 23.24269 30641 ft 498 kts 335°
2026-05-04 11:47 64.48331 23.19621 30644 ft 498 kts 334°
2026-05-04 11:48 64.54966 23.14945 30631 ft 498 kts 334°
2026-05-04 11:48 64.61596 23.10249 30638 ft 498 kts 334°
2026-05-04 11:49 64.68186 23.05557 30642 ft 498 kts 334°
2026-05-04 11:49 64.74820 23.00810 30640 ft 498 kts 334°
2026-05-04 11:50 64.81448 22.96043 30641 ft 498 kts 334°
2026-05-04 11:50 64.88068 22.91255 30637 ft 498 kts 334°
2026-05-04 11:51 64.94686 22.86445 30636 ft 498 kts 334°
2026-05-04 11:51 65.01309 22.81607 30633 ft 498 kts 334°
2026-05-04 11:52 65.07889 22.76776 30632 ft 498 kts 334°
2026-05-04 11:52 65.14503 22.71895 30625 ft 497 kts 334°
2026-05-04 11:53 65.21121 22.66984 30625 ft 497 kts 334°
2026-05-04 11:53 65.27699 22.62077 30624 ft 498 kts 334°
2026-05-04 11:55 65.54160 22.42077 30616 ft 498 kts 334°
2026-05-04 11:56 65.60777 22.37009 30617 ft 498 kts 334°
2026-05-04 11:56 65.67355 22.31945 30615 ft 498 kts 334°
2026-05-04 11:57 65.73966 22.26826 30611 ft 499 kts 334°
2026-05-04 11:57 65.80573 22.21684 30606 ft 499 kts 334°
2026-05-04 11:58 65.87196 22.16500 30602 ft 500 kts 334°
2026-05-04 11:58 65.93820 22.11289 30595 ft 499 kts 334°
2026-05-04 11:59 66.00404 22.06080 30595 ft 500 kts 334°
2026-05-04 11:59 66.07031 22.00809 30601 ft 501 kts 334°
2026-05-04 12:00 66.13672 21.95498 30591 ft 501 kts 334°
2026-05-04 12:00 66.20312 21.90160 30590 ft 501 kts 334°
2026-05-04 12:01 66.26937 21.84804 30595 ft 501 kts 335°
2026-05-04 12:02 66.50044 21.65881 30576 ft 500 kts 335°
2026-05-04 12:03 66.56663 21.60393 30579 ft 500 kts 335°
2026-05-04 12:03 66.63047 21.55072 30579 ft 500 kts 335°
2026-05-04 12:04 66.69664 21.49524 30573 ft 500 kts 335°
2026-05-04 12:04 66.76224 21.43995 30571 ft 500 kts 335°
2026-05-04 12:05 66.82831 21.38392 30563 ft 500 kts 335°
2026-05-04 12:05 66.89421 21.32772 30552 ft 500 kts 335°
2026-05-04 12:06 66.96012 21.27119 30542 ft 499 kts 335°
2026-05-04 12:06 67.02600 21.21437 30540 ft 499 kts 335°
2026-05-04 12:07 67.09194 21.15717 30538 ft 499 kts 335°
2026-05-04 12:07 67.15731 21.10015 30531 ft 500 kts 335°
2026-05-04 12:08 67.22315 21.04237 30534 ft 500 kts 335°
2026-05-04 12:08 67.28906 20.98421 30520 ft 500 kts 335°
2026-05-04 12:09 67.35490 20.92577 30529 ft 499 kts 336°
2026-05-04 12:09 67.42067 20.86703 30518 ft 499 kts 336°
2026-05-04 12:10 67.48599 20.80835 30513 ft 499 kts 336°
2026-05-04 12:10 67.55159 20.74910 30500 ft 499 kts 336°
2026-05-04 12:11 67.61713 20.68954 30479 ft 498 kts 336°
2026-05-04 12:11 67.68259 20.62971 30496 ft 498 kts 336°
2026-05-04 12:12 67.74810 20.56947 30476 ft 498 kts 336°
2026-05-04 12:12 67.81352 20.50897 30473 ft 498 kts 336°
2026-05-04 12:14 68.07507 20.26340 30504 ft 499 kts 336°
2026-05-04 12:15 68.14042 20.20114 30531 ft 498 kts 336°
2026-05-04 12:15 68.20592 20.13834 30534 ft 498 kts 336°
2026-05-04 12:16 68.27117 20.07538 30543 ft 498 kts 336°
2026-05-04 12:16 68.33630 20.01216 30549 ft 497 kts 336°
2026-05-04 12:17 68.40146 19.94855 30558 ft 497 kts 336°
2026-05-04 12:17 68.46611 19.88503 30564 ft 497 kts 336°
2026-05-04 12:18 68.53122 19.82067 30559 ft 496 kts 336°
2026-05-04 12:18 68.59571 19.75655 30545 ft 495 kts 336°
2026-05-04 12:19 68.66033 19.69189 30569 ft 494 kts 336°
2026-05-04 12:19 68.72492 19.62683 30551 ft 494 kts 336°
2026-05-04 12:20 68.78955 19.56134 30547 ft 494 kts 336°
2026-05-04 12:20 68.85412 19.49552 30538 ft 495 kts 336°
2026-05-04 12:21 68.90778 19.44054 30539 ft 495 kts 336°
2026-05-04 12:21 68.97831 19.36778 30528 ft 495 kts 336°
2026-05-04 12:22 69.04287 19.30075 30527 ft 495 kts 336°
2026-05-04 12:22 69.10754 19.23317 30517 ft 495 kts 336°
2026-05-04 12:23 69.17204 19.16538 30506 ft 495 kts 336°
2026-05-04 12:23 69.23654 19.09715 30505 ft 494 kts 336°
2026-05-04 12:24 69.30096 19.02855 30528 ft 494 kts 336°
2026-05-04 12:24 69.36493 18.95998 30617 ft 496 kts 336°
2026-05-04 12:25 69.39734 18.92507 30887 ft 496 kts 336°
2026-05-04 12:25 69.42962 18.89020 31206 ft 495 kts 336°
2026-05-04 12:25 69.46178 18.85537 31454 ft 495 kts 336°
2026-05-04 12:25 69.49404 18.82030 31502 ft 496 kts 336°
2026-05-04 12:26 69.55813 18.75029 31537 ft 494 kts 336°
2026-05-04 12:26 69.62221 18.67987 31557 ft 492 kts 336°
2026-05-04 12:27 69.68605 18.60922 31554 ft 490 kts 336°
2026-05-04 12:27 69.74981 18.53818 31546 ft 491 kts 336°
2026-05-04 12:28 69.81310 18.46721 31544 ft 491 kts 336°
2026-05-04 12:28 69.87685 18.39529 31546 ft 492 kts 336°
2026-05-04 12:29 69.94076 18.32272 31538 ft 493 kts 336°
2026-05-04 12:29 70.00470 18.24962 31534 ft 493 kts 336°
2026-05-04 12:30 70.05790 18.18843 31536 ft 493 kts 336°
2026-05-04 12:30 70.13229 18.10230 31535 ft 494 kts 336°
2026-05-04 12:31 70.18539 18.04042 31537 ft 493 kts 336°
2026-05-04 12:31 70.24922 17.96557 31536 ft 493 kts 336°
2026-05-04 12:32 70.34479 17.85255 31545 ft 493 kts 336°
2026-05-04 12:33 70.40845 17.77667 31542 ft 493 kts 336°
2026-05-04 12:33 70.47180 17.69891 31549 ft 492 kts 335°
2026-05-04 12:34 70.53386 17.61470 31553 ft 492 kts 333°
2026-05-04 12:34 70.59606 17.52822 31555 ft 492 kts 333°
2026-05-04 12:35 70.65834 17.44195 31559 ft 492 kts 334°
2026-05-04 12:35 70.72033 17.35626 31562 ft 493 kts 334°
2026-05-04 12:36 70.78285 17.26943 31552 ft 493 kts 334°
2026-05-04 12:36 70.84517 17.18229 31573 ft 493 kts 334°
2026-05-04 12:37 70.90770 17.09426 31577 ft 494 kts 334°
2026-05-04 12:37 70.96968 17.00634 31564 ft 494 kts 334°
2026-05-04 12:38 71.03214 16.91714 31570 ft 495 kts 334°
2026-05-04 12:38 71.09462 16.82723 31587 ft 495 kts 334°
2026-05-04 12:39 71.15701 16.73680 31594 ft 495 kts 334°
2026-05-04 12:39 71.21935 16.64580 31588 ft 495 kts 334°
2026-05-04 12:40 71.28133 16.55469 31581 ft 495 kts 334°
2026-05-04 12:40 71.34354 16.46263 31606 ft 495 kts 334°
2026-05-04 12:41 71.40577 16.36984 31595 ft 494 kts 334°
2026-05-04 12:41 71.46794 16.27650 31596 ft 494 kts 334°
2026-05-04 12:42 71.52991 16.18277 31615 ft 494 kts 334°
2026-05-04 12:42 71.59153 16.08891 31603 ft 494 kts 334°
2026-05-04 12:43 71.65343 15.99393 31597 ft 494 kts 334°
2026-05-04 12:43 71.71529 15.89832 31601 ft 494 kts 334°
2026-05-04 12:44 71.77674 15.80264 31625 ft 494 kts 334°
2026-05-04 12:44 71.83852 15.70574 31607 ft 494 kts 334°
2026-05-04 12:45 71.90028 15.60817 31606 ft 494 kts 334°
2026-05-04 12:45 71.96194 15.51004 31611 ft 494 kts 334°
2026-05-04 12:46 72.02359 15.41117 31631 ft 494 kts 334°
2026-05-04 12:46 72.08513 15.31176 31628 ft 494 kts 334°
2026-05-04 12:47 72.14670 15.21155 31613 ft 494 kts 334°
2026-05-04 12:47 72.20772 15.11149 31628 ft 494 kts 334°
2026-05-04 12:48 72.26907 15.01012 31633 ft 493 kts 334°
2026-05-04 12:48 72.33043 14.90798 31627 ft 493 kts 334°
2026-05-04 12:49 72.39173 14.80516 31628 ft 493 kts 334°
2026-05-04 12:49 72.45253 14.70239 31632 ft 493 kts 334°
2026-05-04 12:50 72.51342 14.59869 31632 ft 493 kts 334°
2026-05-04 12:50 72.57453 14.49382 31637 ft 493 kts 334°
2026-05-04 12:51 72.63561 14.38820 31640 ft 494 kts 334°
2026-05-04 12:51 72.69669 14.28175 31639 ft 494 kts 334°
2026-05-04 12:52 72.75727 14.17535 31643 ft 495 kts 334°
2026-05-04 12:52 72.81827 14.06737 31649 ft 495 kts 334°
2026-05-04 12:53 72.87932 13.95848 31652 ft 496 kts 334°
2026-05-04 12:53 72.94048 13.84848 31656 ft 497 kts 334°
2026-05-04 12:54 73.00165 13.73760 31663 ft 498 kts 334°
2026-05-04 12:54 73.06280 13.62591 31665 ft 498 kts 334°
2026-05-04 12:55 73.12372 13.51375 31668 ft 498 kts 333°
2026-05-04 12:55 73.18485 13.40026 31675 ft 498 kts 333°
2026-05-04 12:56 73.24583 13.28612 31677 ft 497 kts 333°
2026-05-04 12:56 73.30666 13.17135 31679 ft 497 kts 333°
2026-05-04 12:57 73.36702 13.05651 31683 ft 497 kts 333°
2026-05-04 12:57 73.42789 12.93982 31691 ft 497 kts 333°
2026-05-04 12:58 73.48808 12.82347 31696 ft 496 kts 333°
2026-05-04 12:58 73.54861 12.70549 31699 ft 496 kts 333°
2026-05-04 12:59 73.60908 12.58662 31716 ft 496 kts 333°
2026-05-04 12:59 73.66936 12.46714 31714 ft 496 kts 333°
2026-05-04 13:00 73.72919 12.34759 31711 ft 496 kts 333°
2026-05-04 13:00 73.78932 12.22646 31713 ft 496 kts 333°
2026-05-04 13:01 73.84940 12.10440 31730 ft 495 kts 332°
2026-05-04 13:01 73.90932 11.98162 31727 ft 496 kts 332°
2026-05-04 13:02 73.96915 11.85800 31731 ft 495 kts 332°
2026-05-04 13:02 74.02873 11.73385 31734 ft 495 kts 332°
2026-05-04 13:03 74.08853 11.60821 31742 ft 495 kts 332°
2026-05-04 13:03 74.14788 11.48240 31750 ft 495 kts 332°
2026-05-04 13:04 74.20742 11.35505 31753 ft 495 kts 332°
2026-05-04 13:04 74.26604 11.22868 31761 ft 495 kts 332°
2026-05-04 13:05 74.32623 11.09784 31766 ft 495 kts 332°
2026-05-04 13:05 74.38553 10.96774 31772 ft 495 kts 332°
2026-05-04 13:06 74.44449 10.83728 31778 ft 495 kts 332°
2026-05-04 13:06 74.50375 10.70503 31783 ft 495 kts 332°
2026-05-04 13:07 74.56286 10.57192 31786 ft 495 kts 331°
2026-05-04 13:07 74.62181 10.43794 31791 ft 495 kts 331°
2026-05-04 13:08 74.68066 10.30303 31800 ft 495 kts 331°
2026-05-04 13:08 74.73904 10.16802 31808 ft 495 kts 331°
2026-05-04 13:09 74.79808 10.03030 31815 ft 494 kts 331°
2026-05-04 13:09 74.85630 9.89325 31819 ft 494 kts 331°
2026-05-04 13:10 74.91485 9.75421 31822 ft 494 kts 330°
2026-05-04 13:10 74.97329 9.61417 31829 ft 494 kts 330°
2026-05-04 13:11 75.03129 9.47377 31837 ft 494 kts 330°
2026-05-04 13:11 75.08947 9.33173 31841 ft 494 kts 330°
2026-05-04 13:12 75.14766 9.18843 31851 ft 494 kts 330°
2026-05-04 13:12 75.20576 9.04406 31853 ft 494 kts 330°
2026-05-04 13:13 75.26365 8.89877 31865 ft 494 kts 330°
2026-05-04 13:13 75.32126 8.75290 31864 ft 494 kts 330°
2026-05-04 13:14 75.37899 8.60539 31871 ft 494 kts 329°
2026-05-04 13:14 75.43671 8.45648 31877 ft 494 kts 329°
2026-05-04 13:15 75.49440 8.30620 31880 ft 494 kts 329°
2026-05-04 13:15 75.55188 8.15502 31881 ft 494 kts 329°
2026-05-04 13:16 75.60882 8.00389 31904 ft 494 kts 329°
2026-05-04 13:16 75.66612 7.85040 31910 ft 493 kts 329°
2026-05-04 13:17 75.72324 7.69591 31912 ft 493 kts 329°
2026-05-04 13:17 75.77059 7.56670 31911 ft 493 kts 328°
2026-05-04 13:18 75.82743 7.41022 31918 ft 493 kts 328°
2026-05-04 13:18 75.88418 7.25246 31921 ft 493 kts 328°
2026-05-04 13:19 75.94078 7.09363 31927 ft 493 kts 328°
2026-05-04 13:19 75.99700 6.93436 31929 ft 492 kts 328°
2026-05-04 13:20 76.05343 6.77286 31936 ft 492 kts 328°
2026-05-04 13:20 76.10969 6.61028 31941 ft 492 kts 327°
2026-05-04 13:21 76.16590 6.44617 31944 ft 493 kts 327°
2026-05-04 13:21 76.22195 6.28097 31950 ft 493 kts 327°
2026-05-04 13:22 76.27760 6.11530 31955 ft 493 kts 327°
2026-05-04 13:22 76.33342 5.94743 31958 ft 492 kts 327°
2026-05-04 13:23 76.38918 5.77808 31960 ft 492 kts 327°
2026-05-04 13:23 76.44476 5.60754 31968 ft 492 kts 326°
2026-05-04 13:24 76.49988 5.43670 31969 ft 492 kts 326°
2026-05-04 13:24 76.55528 5.26324 31970 ft 492 kts 326°
2026-05-04 13:25 76.63815 5.00044 31980 ft 492 kts 326°
2026-05-04 13:25 76.69324 4.82347 31982 ft 492 kts 326°
2026-05-04 13:26 76.74782 4.64629 31989 ft 493 kts 326°
2026-05-04 13:26 76.80287 4.46575 31988 ft 493 kts 326°
2026-05-04 13:27 76.85729 4.28539 31981 ft 493 kts 326°
2026-05-04 13:27 76.91197 4.10223 32001 ft 493 kts 325°
2026-05-04 13:28 76.96651 3.91764 32000 ft 494 kts 325°
2026-05-04 13:28 77.02101 3.73117 32000 ft 494 kts 325°
2026-05-04 13:29 77.07531 3.54343 32004 ft 494 kts 325°
2026-05-04 13:29 77.12924 3.35493 32010 ft 494 kts 324°
2026-05-04 13:30 77.18324 3.16413 32016 ft 494 kts 324°
2026-05-04 13:30 77.23689 2.97253 32013 ft 494 kts 324°
2026-05-04 13:31 77.29076 2.77803 32021 ft 494 kts 324°
2026-05-04 13:31 77.34440 2.58222 32026 ft 494 kts 324°
2026-05-04 13:32 77.39760 2.38589 32025 ft 494 kts 324°
2026-05-04 13:32 77.45099 2.18666 32038 ft 494 kts 324°
2026-05-04 13:33 77.50393 1.98689 32039 ft 494 kts 323°
2026-05-04 13:33 77.55696 1.78455 32039 ft 494 kts 323°
2026-05-04 13:34 77.60997 1.57997 32044 ft 494 kts 323°
2026-05-04 13:34 77.66284 1.37361 32054 ft 494 kts 323°
2026-05-04 13:35 77.74141 1.06259 32057 ft 494 kts 323°
2026-05-04 13:36 77.79380 0.85220 32058 ft 494 kts 323°
2026-05-04 13:36 77.84605 0.63996 32063 ft 494 kts 322°
2026-05-04 13:37 77.89816 0.42583 32071 ft 494 kts 322°
2026-05-04 13:37 77.95003 0.21019 32079 ft 494 kts 322°
2026-05-04 13:38 78.00174 -0.00707 32084 ft 494 kts 322°
2026-05-04 13:38 78.05322 -0.22453 32087 ft 494 kts 322°
2026-05-04 13:39 78.10490 -0.44416 32102 ft 494 kts 322°
2026-05-04 13:39 78.15645 -0.66588 32112 ft 494 kts 322°
2026-05-04 13:40 78.20783 -0.88971 32121 ft 495 kts 322°
2026-05-04 13:40 78.25873 -1.11424 32126 ft 495 kts 322°
2026-05-04 13:41 78.30978 -1.34219 32141 ft 495 kts 321°
2026-05-04 13:41 78.36068 -1.57224 32147 ft 495 kts 321°
2026-05-04 13:42 78.43657 -1.92052 32159 ft 495 kts 321°
2026-05-04 13:42 78.48663 -2.15378 32166 ft 494 kts 321°
2026-05-04 13:43 78.53668 -2.38993 32164 ft 494 kts 320°
2026-05-04 13:43 78.58664 -2.62860 32182 ft 493 kts 320°
2026-05-04 13:44 78.63599 -2.86729 32192 ft 493 kts 320°
2026-05-04 13:44 78.68544 -3.10950 32191 ft 492 kts 320°
2026-05-04 13:45 78.73458 -3.35321 32204 ft 492 kts 319°
2026-05-04 13:45 78.78352 -3.59909 32214 ft 492 kts 319°
2026-05-04 13:46 78.83213 -3.84638 32218 ft 491 kts 319°
2026-05-04 13:46 78.88035 -4.09488 32225 ft 491 kts 319°
2026-05-04 13:47 78.92854 -4.34641 32229 ft 491 kts 318°
2026-05-04 13:47 78.97649 -4.59992 32244 ft 491 kts 318°
2026-05-04 13:48 79.02431 -4.85614 32246 ft 491 kts 318°
2026-05-04 13:48 79.07159 -5.11270 32254 ft 491 kts 317°
2026-05-04 13:49 79.11887 -5.37274 32260 ft 491 kts 317°
2026-05-04 13:49 79.16598 -5.63526 32267 ft 490 kts 317°
2026-05-04 13:50 79.21288 -5.90009 32272 ft 490 kts 317°
2026-05-04 13:50 79.25945 -6.16663 32279 ft 490 kts 316°
2026-05-04 13:51 79.30581 -6.43561 32285 ft 490 kts 316°
2026-05-04 13:51 79.35164 -6.70513 32297 ft 490 kts 316°
2026-05-04 13:52 79.42043 -7.11656 32299 ft 489 kts 315°
2026-05-04 13:53 79.46565 -7.39182 32314 ft 489 kts 315°
2026-05-04 13:53 79.51090 -7.67095 32323 ft 489 kts 315°
2026-05-04 13:54 79.57798 -8.09202 32330 ft 489 kts 315°
2026-05-04 13:55 79.64482 -8.52052 32345 ft 489 kts 314°
2026-05-04 13:55 79.71114 -8.95485 32358 ft 490 kts 314°
2026-05-04 13:56 79.75481 -9.24613 32369 ft 491 kts 314°
2026-05-04 13:57 79.82023 -9.69052 32379 ft 491 kts 313°
2026-05-04 13:58 79.90657 -10.29198 32395 ft 492 kts 312°
2026-05-04 13:58 79.97071 -10.75057 32402 ft 492 kts 312°
2026-05-04 13:59 80.01321 -11.06016 32414 ft 491 kts 312°
2026-05-04 14:00 80.07614 -11.52738 32420 ft 491 kts 311°
2026-05-04 14:00 80.13812 -11.99902 32440 ft 490 kts 311°
2026-05-04 14:01 80.17923 -12.31711 32446 ft 490 kts 310°
2026-05-04 14:02 80.24005 -12.79730 32458 ft 489 kts 310°
2026-05-04 14:02 80.28038 -13.12244 32465 ft 489 kts 309°
2026-05-04 14:03 80.32032 -13.44939 32478 ft 489 kts 309°
2026-05-04 14:03 80.35975 -13.77689 32488 ft 489 kts 309°
2026-05-04 14:04 80.41859 -14.27592 32494 ft 488 kts 308°
2026-05-04 14:04 80.45737 -14.61169 32497 ft 488 kts 308°
2026-05-04 14:05 80.50852 -15.06329 32498 ft 488 kts 307°
2026-05-04 14:06 80.54618 -15.40284 32509 ft 488 kts 307°
2026-05-04 14:06 80.58393 -15.74725 32504 ft 488 kts 307°
2026-05-04 14:07 80.62126 -16.09422 32508 ft 488 kts 307°
2026-05-04 14:07 80.65822 -16.44426 32511 ft 489 kts 306°
2026-05-04 14:08 80.69491 -16.79770 32525 ft 489 kts 306°
2026-05-04 14:08 80.73113 -17.15187 32536 ft 489 kts 305°
2026-05-04 14:09 80.78502 -17.69210 32572 ft 488 kts 305°
2026-05-04 14:10 80.83782 -18.23501 32595 ft 488 kts 304°
2026-05-04 14:10 80.87270 -18.60193 32601 ft 488 kts 303°
2026-05-04 14:11 80.90709 -18.97024 32626 ft 486 kts 303°
2026-05-04 14:11 80.95787 -19.52656 32633 ft 484 kts 302°
2026-05-04 14:12 80.99101 -19.89726 32617 ft 483 kts 301°
2026-05-04 14:13 81.03912 -20.46336 32630 ft 482 kts 300°